sat.trackr.live / text

‹ back to catalog

STARLINK-32882

NORAD 62963 · 2025-029R

PAYLOAD ACTIVE UNKNOWN

§ Identity

Operator
Country
US
Launch date
2025-02-11
Launch site
AFWTR
Launch vehicle
Mass (kg)
RCS (m²)

Purposes: comms

External: N2YO · Heavens-Above · Gunter

§ Orbital elements

Epoch: 2026-09-21T16:34:56.488512Z

Period
93.85 min
Inclination
53.1601°
Eccentricity
0.0000805
Mean motion
15.34405643 rev/d
Perigee alt
462.1 km
Apogee alt
463.2 km
Semi-major
6,840.8 km
B*
5.7647e-4
RAAN
35.8520°
Arg perigee
85.0227°
Mean anomaly
275.0868°
Rev number
9,141

§ Raw data

STARLINK-328821 62963U 25029R   26264.69093158  .00019154  00000+0  57647-3 0  99962 62963  53.1601  35.8520 0000805  85.0227 275.0868 15.34405643 91410

JSON: /api/v1/satellites/62963 · /tle

For live sub-satellite position, see the globe view (requires WebGL).

§ Visibility from observer

Set your observer location to see the next 7 days of passes ≥ 10°. The values pass through the URL so the page stays shareable.

No JS? Fill the form by hand. The geolocation button needs JavaScript.